Gwinn, MI

11:18 AM EDT on July 26, 2017 (GMT -0400)
Sawyer International

Weather History for KSAW - November, 2012

Change the Weather History Date:

Friday, November 30, 2012

  Actual Average (KESC) Record (KESC)
Temperature  
Mean Temperature 22 °F -  
Max Temperature 27 °F 35 °F 55 °F (1998)
Min Temperature 19 °F 21 °F -3 °F (1976)
Degree Days  
Heating Degree Days 42    
Moisture  
Dew Point 18 °F    
Average Humidity 81    
Maximum Humidity 93    
Minimum Humidity 67    
Precipitation  
Precipitation 0.00 in - - ()
Sea Level Pressure  
Sea Level Pressure 30.26 in    
Wind  
Wind Speed 5 mph (East)    
Max Wind Speed 9 mph    
Max Gust Speed -    
Visibility 10 miles    
Events      
Averages and records for this station are not official NWS values.
T = Trace of Precipitation, MM = Missing Value Source: NWS Daily Summary

Daily Weather History Graph

Daily Weather History Graph

Search for Another Location

Airport or City:

Trip Planner

Search our weather history database for the weather conditions in past years. The results will help you decide how hot, cold, wet, or windy it might be!

Date:

Astronomy

Nov. 30, 2012 Rise Set
Actual Time 8:11 AM EST 5:05 PM EST
Civil Twilight 7:37 AM EST 5:39 PM EST
Nautical Twilight 6:59 AM EST 6:16 PM EST
Astronomical Twilight 6:23 AM EST 6:52 PM EST
Moon 7:00 PM EST (11/30) 9:43 AM EST (11/30)
Length of Visible Light 10h 01m
Length of Day
8h 53m
Waning Gibbous, 96% of the Moon is Illuminated
Nov 30
Waning Gibbous
Dec 6
Last Quarter
Dec 13
New
Dec 20
First Quarter
Dec 28
Full

Hourly Weather History & Observations

Time (EST) Temp. Windchill Dew Point Humidity Pressure Visibility Wind Dir Wind Speed Gust Speed Precip Events Conditions
12:16 AM 22.8 °F 15.5 °F 17.8 °F 81% 30.28 in 10.0 mi East 5.8 mph - N/A   Overcast
12:35 AM 22.8 °F 15.5 °F 18.0 °F 82% 30.28 in 10.0 mi East 5.8 mph - N/A   Overcast
12:56 AM 22.5 °F 16.3 °F 17.6 °F 82% 30.28 in 10.0 mi ESE 4.6 mph - N/A   Overcast
1:16 AM 22.3 °F 14.9 °F 16.9 °F 80% 30.28 in 10.0 mi East 5.8 mph - N/A   Overcast
1:35 AM 22.1 °F 15.9 °F 16.7 °F 80% 30.28 in 10.0 mi East 4.6 mph - N/A   Overcast
1:56 AM 22.1 °F 15.9 °F 15.8 °F 77% 30.28 in 10.0 mi ESE 4.6 mph - N/A   Overcast
2:16 AM 22.1 °F 17.4 °F 15.8 °F 77% 30.28 in 10.0 mi East 3.5 mph - N/A   Overcast
2:36 AM 21.9 °F 15.7 °F 15.4 °F 76% 30.28 in 10.0 mi East 4.6 mph - N/A   Overcast
2:56 AM 21.2 °F 14.9 °F 14.7 °F 76% 30.28 in 10.0 mi ENE 4.6 mph - N/A   Mostly Cloudy
3:16 AM 21.2 °F 14.9 °F 14.5 °F 75% 30.28 in 10.0 mi East 4.6 mph - N/A   Mostly Cloudy
3:36 AM 20.8 °F 11.2 °F 14.0 °F 75% 30.28 in 10.0 mi East 8.1 mph - N/A   Overcast
3:56 AM 20.7 °F 13.0 °F 13.6 °F 74% 30.28 in 10.0 mi East 5.8 mph - N/A   Mostly Cloudy
4:15 AM 20.5 °F 11.7 °F 13.1 °F 73% 30.27 in 10.0 mi East 6.9 mph - N/A   Overcast
4:36 AM 20.1 °F 10.3 °F 13.5 °F 75% 30.27 in 10.0 mi ESE 8.1 mph - N/A   Overcast
4:56 AM 19.9 °F 13.4 °F 13.5 °F 76% 30.27 in 10.0 mi East 4.6 mph - N/A   Overcast
5:15 AM 19.9 °F 12.1 °F 12.6 °F 73% 30.27 in 10.0 mi ENE 5.8 mph - N/A   Overcast
5:36 AM 19.9 °F 12.1 °F 11.3 °F 69% 30.27 in 10.0 mi ENE 5.8 mph - N/A   Overcast
5:56 AM 19.9 °F 13.4 °F 10.4 °F 67% 30.27 in 10.0 mi ENE 4.6 mph - N/A   Overcast
6:50 AM 19.4 °F 11.5 °F 12.2 °F 74% 30.28 in 10.0 mi ENE 5.8 mph - N/A   Overcast
7:10 AM 19.4 °F 12.8 °F 12.2 °F 74% 30.28 in 10.0 mi NE 4.6 mph - N/A   Overcast
7:50 AM 19.4 °F 11.5 °F 14.0 °F 80% 30.29 in 10.0 mi ENE 5.8 mph - N/A   Overcast
8:50 AM 19.4 °F 10.4 °F 15.8 °F 86% 30.28 in 10.0 mi East 6.9 mph - N/A   Overcast
9:50 AM 19.4 °F 11.5 °F 15.8 °F 86% 30.29 in 10.0 mi East 5.8 mph - N/A   Overcast
10:50 AM 21.2 °F 11.7 °F 17.6 °F 86% 30.29 in 10.0 mi ESE 8.1 mph - N/A   Overcast
11:50 AM 24.8 °F 15.3 °F 19.4 °F 80% 30.27 in 10.0 mi ESE 9.2 mph - N/A   Overcast
12:50 PM 24.8 °F 19.1 °F 19.4 °F 80% 30.26 in 10.0 mi ESE 4.6 mph - N/A   Overcast
1:50 PM 24.8 °F 16.9 °F 19.4 °F 80% 30.25 in 10.0 mi ESE 6.9 mph - N/A   Overcast
2:50 PM 26.6 °F 18.2 °F 21.2 °F 80% 30.25 in 10.0 mi East 8.1 mph - N/A   Overcast
3:50 PM 26.6 °F 20.0 °F 21.2 °F 80% 30.24 in 10.0 mi East 5.8 mph - N/A   Overcast
4:45 PM 24.8 °F 15.3 °F 21.2 °F 86% 30.24 in 10.0 mi SE 9.2 mph - N/A   Overcast
5:55 PM 24.8 °F - 21.2 °F 86% 30.28 in 10.0 mi Calm Calm - N/A   Overcast
6:55 PM 24.8 °F 17.9 °F 21.2 °F 86% 30.25 in 10.0 mi East 5.8 mph - N/A   Overcast
7:50 PM 24.8 °F - 21.2 °F 86% 30.25 in 10.0 mi Calm Calm - N/A   Overcast
8:55 PM 24.8 °F 17.9 °F 21.2 °F 86% 30.23 in 10.0 mi East 5.8 mph - N/A   Overcast
9:50 PM 24.8 °F 20.5 °F 21.2 °F 86% 30.22 in 10.0 mi East 3.5 mph - N/A   Overcast
10:16 PM 25.3 °F - 22.1 °F 87% 30.24 in 10.0 mi Calm Calm - N/A   Overcast
10:36 PM 25.3 °F - 22.5 °F 89% 30.22 in 10.0 mi Calm Calm - N/A   Overcast
10:55 PM 24.8 °F - 23.0 °F 93% 30.22 in 10.0 mi Calm Calm - N/A   Overcast
11:16 PM 25.5 °F - 23.0 °F 90% 30.23 in 10.0 mi Calm Calm - N/A   Overcast
11:36 PM 25.7 °F 21.5 °F 23.4 °F 91% 30.20 in 10.0 mi SSE 3.5 mph - N/A   Overcast
11:55 PM 25.7 °F 20.1 °F 23.7 °F 92% 30.20 in 7.0 mi SSE 4.6 mph - N/A   Overcast